,,PA_Meas_PMT16A,,PR_Meas_QMR101_102,,RH_Meas_QMH101,,SR_Meas_QMS101,,TA_Meas_QMH101,,GenWind,,GenWind,
time,status,PA,status,PR,status,RH,status,SR,status,TA,status,DirAvg,status,SpdAvg,
2014-07-27, 07:05:04,VALID,918.892,VALID,0,VALID,85.6567,VALID,45.2327,VALID,19.6458,VALID,15,VALID,0,
2014-07-27, 07:06:04,VALID,918.902,VALID,0,VALID,85.672,VALID,47.0592,VALID,19.6248,VALID,15,VALID,0,
2014-07-27, 07:07:04,VALID,918.898,VALID,0,VALID,85.5576,VALID,48.8857,VALID,19.6233,VALID,16,VALID,0.0984375,
2014-07-27, 07:08:04,VALID,918.931,VALID,0,VALID,85.5805,VALID,50.7122,VALID,19.6443,VALID,16,VALID,0.367188,
2014-07-27, 07:09:04,VALID,918.93,VALID,0,VALID,85.672,VALID,52.5387,VALID,19.6443,VALID,16,VALID,0.604688,
2014-07-27, 07:10:04,VALID,918.95,VALID,0,VALID,85.6948,VALID,54.2578,VALID,19.6638,VALID,15,VALID,0.521875,
2014-07-27, 07:11:04,VALID,918.953,VALID,0,VALID,85.6415,VALID,55.9768,VALID,19.6833,VALID,15,VALID,0.432422,
2014-07-27, 07:12:04,VALID,918.971,VALID,0,VALID,85.4814,VALID,57.481,VALID,19.7028,VALID,15,VALID,0.382422,
2014-07-27, 07:13:04,VALID,918.999,VALID,0,VALID,85.1764,VALID,58.9852,VALID,19.7208,VALID,15,VALID,0.359375,
2014-07-27, 07:14:04,VALID,919.012,VALID,0,VALID,85.0316,VALID,60.3819,VALID,19.8198,VALID,15,VALID,0.289063,
2014-07-27, 07:15:04,VALID,919.035,VALID,0,VALID,84.9401,VALID,61.7787,VALID,19.8378,VALID,15,VALID,0.166797,
2014-07-27, 07:16:04,VALID,919.014,VALID,0,VALID,84.5361,VALID,63.1754,VALID,19.8978,VALID,15,VALID,0.214844,
2014-07-27, 07:17:04,VALID,919.019,VALID,0,VALID,84.1625,VALID,64.4647,VALID,19.9353,VALID,15,VALID,0.342187,
2014-07-27, 07:18:04,VALID,919.038,VALID,0,VALID,84.3683,VALID,65.9689,VALID,19.9743,VALID,15,VALID,0.466406,
2014-07-27, 07:19:04,VALID,919.019,VALID,0,VALID,84.9553,VALID,67.473,VALID,19.9353,VALID,15,VALID,0.671094,
2014-07-27, 07:20:04,VALID,919.041,VALID,0,VALID,85.4051,VALID,69.1921,VALID,19.8783,VALID,16,VALID,0.552734,
2014-07-27, 07:21:04,VALID,919.016,VALID,0,VALID,85.6415,VALID,70.9112,VALID,19.7988,VALID,15,VALID,0.514063,
2014-07-27, 07:22:04,VALID,918.989,VALID,0,VALID,85.8549,VALID,72.7377,VALID,19.8003,VALID,15,VALID,0.40625,
2014-07-27, 07:23:04,VALID,918.997,VALID,0,VALID,86.1141,VALID,74.8865,VALID,19.7793,VALID,15,VALID,0.313281,
2014-07-27, 07:24:04,VALID,919.005,VALID,0,VALID,85.4128,VALID,77.1427,VALID,19.7598,VALID,16,VALID,0.771484,
2014-07-27, 07:25:04,VALID,918.978,VALID,0,VALID,84.3607,VALID,79.6139,VALID,19.8978,VALID,15,VALID,0.698828,
2014-07-27, 07:26:04,VALID,919.002,VALID,0,VALID,83.9414,VALID,82.2999,VALID,20.0328,VALID,16,VALID,0.726563,
2014-07-27, 07:27:04,VALID,918.999,VALID,0,VALID,83.9643,VALID,84.8785,VALID,20.0898,VALID,16,VALID,0.516406,
2014-07-27, 07:28:04,VALID,919.01,VALID,0,VALID,84.315,VALID,87.5645,VALID,20.1888,VALID,15,VALID,0.171094,
2014-07-27, 07:29:04,VALID,919.048,VALID,0,VALID,84.0787,VALID,90.1431,VALID,20.2098,VALID,15,VALID,0.177734,
2014-07-27, 07:30:04,VALID,919.076,VALID,0,VALID,83.7356,VALID,92.6143,VALID,20.2684,VALID,15,VALID,0,
2014-07-27, 07:31:04,VALID,919.143,VALID,0,VALID,83.6441,VALID,95.0854,VALID,20.3464,VALID,15,VALID,0.0878906,
2014-07-27, 07:32:04,VALID,919.172,VALID,0,VALID,82.6912,VALID,97.4491,VALID,20.3854,VALID,15,VALID,0.451953,
2014-07-27, 07:33:04,VALID,919.178,VALID,0,VALID,82.615,VALID,100.028,VALID,20.4634,VALID,15,VALID,0.469531,
2014-07-27, 07:34:04,VALID,919.188,VALID,0,VALID,82.8818,VALID,102.714,VALID,20.5009,VALID,15,VALID,0.394141,
2014-07-27, 07:35:04,VALID,919.174,VALID,0,VALID,83.4917,VALID,105.615,VALID,20.5609,VALID,15,VALID,0.621094,
2014-07-27, 07:36:04,VALID,919.215,VALID,0,VALID,83.606,VALID,108.408,VALID,20.4813,VALID,16,VALID,0.56875,
2014-07-27, 07:37:04,VALID,919.22,VALID,0,VALID,85.5195,VALID,111.202,VALID,20.4813,VALID,15,VALID,0.504687,
2014-07-27, 07:38:04,VALID,919.252,VALID,0,VALID,84.6352,VALID,113.565,VALID,20.4423,VALID,15,VALID,0.561328,
2014-07-27, 07:39:04,VALID,919.283,VALID,0,VALID,84.4065,VALID,116.251,VALID,20.4618,VALID,15,VALID,0.372266,
2014-07-27, 07:40:04,VALID,919.317,VALID,0,VALID,83.2172,VALID,120.119,VALID,20.4829,VALID,15,VALID,0.614062,
2014-07-27, 07:41:04,VALID,919.345,VALID,0,VALID,83.9643,VALID,124.095,VALID,20.4049,VALID,15,VALID,0.857031,
2014-07-27, 07:42:04,VALID,919.341,VALID,0,VALID,83.8576,VALID,126.243,VALID,20.3074,VALID,15,VALID,0.503125,
2014-07-27, 07:43:04,VALID,919.344,VALID,0,VALID,84.193,VALID,125.921,VALID,20.2684,VALID,15,VALID,0.182422,
2014-07-27, 07:44:04,VALID,919.346,VALID,0,VALID,84.2159,VALID,126.351,VALID,20.2879,VALID,15,VALID,0.38125,
2014-07-27, 07:45:04,VALID,919.369,VALID,0,VALID,84.8867,VALID,126.781,VALID,20.3269,VALID,15,VALID,0.494922,
2014-07-27, 07:46:04,VALID,919.358,VALID,0,VALID,84.2769,VALID,125.921,VALID,20.3659,VALID,15,VALID,0.373437,
2014-07-27, 07:47:04,VALID,919.365,VALID,0,VALID,84.3455,VALID,126.888,VALID,20.4244,VALID,15,VALID,0.420312,
2014-07-27, 07:48:04,VALID,919.38,VALID,0,VALID,85.0468,VALID,128.822,VALID,20.5219,VALID,15,VALID,0.252734,
2014-07-27, 07:49:04,VALID,919.394,VALID,0,VALID,85.2603,VALID,131.186,VALID,20.5999,VALID,15,VALID,0.383594,
2014-07-27, 07:50:04,VALID,919.413,VALID,0,VALID,85.0392,VALID,134.731,VALID,20.7365,VALID,15,VALID,0.455859,
2014-07-27, 07:51:04,VALID,919.433,VALID,0,VALID,84.7038,VALID,138.062,VALID,20.7739,VALID,15,VALID,0.572266,
2014-07-27, 07:52:04,VALID,919.453,VALID,0,VALID,85.0392,VALID,139.459,VALID,20.873,VALID,15,VALID,0.393359,
2014-07-27, 07:53:04,VALID,919.472,VALID,0,VALID,85.1383,VALID,139.459,VALID,20.891,VALID,15,VALID,0.255469,
2014-07-27, 07:54:04,VALID,919.481,VALID,0,VALID,83.8652,VALID,140.426,VALID,20.9511,VALID,15,VALID,0.222266,
2014-07-27, 07:55:04,VALID,919.497,VALID,0,VALID,84.0405,VALID,143.326,VALID,21.0275,VALID,15,VALID,0,
2014-07-27, 07:56:04,VALID,919.543,VALID,0,VALID,83.5984,VALID,148.699,VALID,21.1055,VALID,15,VALID,0,
2014-07-27, 07:57:04,VALID,919.558,VALID,0,VALID,82.7217,VALID,157.186,VALID,21.164,VALID,15,VALID,0.439844,
2014-07-27, 07:58:04,VALID,919.594,VALID,0,VALID,83.4154,VALID,163.096,VALID,21.1852,VALID,15,VALID,0.632422,
2014-07-27, 07:59:04,VALID,919.596,VALID,0,VALID,84.0863,VALID,167.716,VALID,21.1445,VALID,15,VALID,0.542578,
2014-07-27, 08:00:04,VALID,919.617,VALID,0,VALID,82.0813,VALID,167.931,VALID,21.1657,VALID,15,VALID,0.735937,
2014-07-27, 08:01:04,VALID,919.657,VALID,0,VALID,81.3876,VALID,168.253,VALID,21.0876,VALID,15,VALID,0.597266,
2014-07-27, 08:02:04,VALID,919.679,VALID,0,VALID,82.5463,VALID,170.402,VALID,21.0681,VALID,15,VALID,0.408203,
2014-07-27, 08:03:04,VALID,919.703,VALID,0,VALID,83.1486,VALID,173.625,VALID,21.0665,VALID,16,VALID,0.783594,
2014-07-27, 08:04:04,VALID,919.691,VALID,0,VALID,82.6912,VALID,174.592,VALID,21.1055,VALID,23,VALID,0.8,
2014-07-27, 08:05:04,VALID,919.697,VALID,0,VALID,82.2795,VALID,171.261,VALID,21.125,VALID,21,VALID,0.621875,
2014-07-27, 08:06:04,VALID,919.733,VALID,0,VALID,82.9428,VALID,170.831,VALID,21.086,VALID,21,VALID,0.406641,
2014-07-27, 08:07:04,VALID,919.71,VALID,0,VALID,82.6836,VALID,173.088,VALID,21.1445,VALID,1,VALID,0.841016,
2014-07-27, 08:08:04,VALID,919.758,VALID,0,VALID,83.1181,VALID,173.088,VALID,21.1429,VALID,1,VALID,0.896484,
2014-07-27, 08:09:04,VALID,919.76,VALID,0,VALID,81.723,VALID,176.633,VALID,21.1055,VALID,9,VALID,1.51133,
2014-07-27, 08:10:04,VALID,919.775,VALID,0,VALID,83.0724,VALID,176.526,VALID,21.0454,VALID,12,VALID,0.911719,
2014-07-27, 08:11:04,VALID,919.813,VALID,0,VALID,83.7508,VALID,175.774,VALID,21.086,VALID,344,VALID,0.846094,
2014-07-27, 08:12:04,VALID,919.795,VALID,0,VALID,82.9351,VALID,176.633,VALID,21.1055,VALID,339,VALID,1.0207,
2014-07-27, 08:13:04,VALID,919.816,VALID,0,VALID,83.7204,VALID,174.055,VALID,21.0844,VALID,1,VALID,0.919531,
2014-07-27, 08:14:04,VALID,919.822,VALID,0,VALID,83.6975,VALID,176.096,VALID,21.086,VALID,1,VALID,0.945703,
2014-07-27, 08:15:04,VALID,919.842,VALID,0,VALID,84.1168,VALID,179.534,VALID,21.0649,VALID,1,VALID,0.682422,
2014-07-27, 08:16:04,VALID,919.852,VALID,0,VALID,84.0558,VALID,183.509,VALID,21.164,VALID,21,VALID,1.06016,
2014-07-27, 08:17:04,VALID,919.87,VALID,0,VALID,83.2629,VALID,185.121,VALID,21.1819,VALID,19,VALID,1.21914,
2014-07-27, 08:18:04,VALID,919.858,VALID,0,VALID,83.1029,VALID,187.27,VALID,21.1836,VALID,14,VALID,1.39688,
2014-07-27, 08:19:04,VALID,919.867,VALID,0,VALID,83.3392,VALID,186.303,VALID,21.1624,VALID,5,VALID,1.15703,
2014-07-27, 08:20:04,VALID,919.868,VALID,0,VALID,83.3239,VALID,185.121,VALID,21.1836,VALID,28,VALID,1.16367,
2014-07-27, 08:21:04,VALID,919.838,VALID,0,VALID,83.141,VALID,183.617,VALID,21.1445,VALID,21,VALID,1.36133,
2014-07-27, 08:22:04,VALID,919.84,VALID,0,VALID,83.3697,VALID,184.584,VALID,21.0844,VALID,12,VALID,1.11445,
2014-07-27, 08:23:04,VALID,919.861,VALID,0,VALID,83.7661,VALID,184.476,VALID,21.1055,VALID,3,VALID,1.50977,
2014-07-27, 08:24:04,VALID,919.877,VALID,0,VALID,83.7051,VALID,184.476,VALID,21.0844,VALID,17,VALID,1.27148,
2014-07-27, 08:25:04,VALID,919.9,VALID,0,VALID,84.132,VALID,186.733,VALID,21.1234,VALID,22,VALID,1.01797,
2014-07-27, 08:26:04,VALID,919.901,VALID,0,VALID,83.1715,VALID,188.022,VALID,21.1836,VALID,355,VALID,1.35547,
2014-07-27, 08:27:04,VALID,919.949,VALID,0,VALID,82.5692,VALID,188.237,VALID,21.1819,VALID,25,VALID,1.50273,
2014-07-27, 08:28:04,VALID,919.915,VALID,0,VALID,82.8208,VALID,186.518,VALID,21.2226,VALID,25,VALID,0.994922,
2014-07-27, 08:29:04,VALID,919.934,VALID,0,VALID,83.1791,VALID,183.617,VALID,21.2405,VALID,29,VALID,1.34258,
2014-07-27, 08:30:04,VALID,919.975,VALID,0,VALID,82.8742,VALID,182.22,VALID,21.2616,VALID,23,VALID,1.22383,
2014-07-27, 08:31:04,VALID,919.967,VALID,0,VALID,81.6773,VALID,182.757,VALID,21.299,VALID,349,VALID,0.854688,
2014-07-27, 08:32:04,VALID,919.985,VALID,0,VALID,81.1741,VALID,184.691,VALID,21.3786,VALID,6,VALID,1.02305,
2014-07-27, 08:33:04,VALID,920.015,VALID,0,VALID,80.9988,VALID,185.121,VALID,21.3965,VALID,346,VALID,1.37773,
2014-07-27, 08:34:04,VALID,919.997,VALID,0,VALID,81.7459,VALID,185.551,VALID,21.4355,VALID,14,VALID,0.896094,
2014-07-27, 08:35:04,VALID,919.988,VALID,0,VALID,81.9517,VALID,187.162,VALID,21.4746,VALID,357,VALID,0.777344,
2014-07-27, 08:36:04,VALID,919.946,VALID,0,VALID,80.8844,VALID,192.212,VALID,21.5542,VALID,19,VALID,1.12969,
2014-07-27, 08:37:04,VALID,919.906,VALID,0,VALID,80.6786,VALID,197.907,VALID,21.5526,VALID,17,VALID,1.3375,
2014-07-27, 08:38:04,VALID,919.879,VALID,0,VALID,81.1894,VALID,200.485,VALID,21.5721,VALID,17,VALID,1.05898,
2014-07-27, 08:39:04,VALID,919.874,VALID,0,VALID,80.0078,VALID,205.213,VALID,21.6111,VALID,30,VALID,1.16562,
2014-07-27, 08:40:04,VALID,919.91,VALID,0,VALID,81.1665,VALID,213.163,VALID,21.6306,VALID,16,VALID,0.734766,
2014-07-27, 08:41:04,VALID,919.907,VALID,0,VALID,81.1436,VALID,221.973,VALID,21.6501,VALID,6,VALID,0.95625,
2014-07-27, 08:42:04,VALID,919.925,VALID,0,VALID,81.2656,VALID,235.618,VALID,21.7282,VALID,353,VALID,0.494922,
2014-07-27, 08:43:04,VALID,919.91,VALID,0,VALID,79.9086,VALID,247.759,VALID,21.8257,VALID,355,VALID,1.03789,
2014-07-27, 08:44:04,VALID,919.903,VALID,0,VALID,79.6723,VALID,249.156,VALID,21.9428,VALID,357,VALID,0.644531,
2014-07-27, 08:45:04,VALID,919.867,VALID,0,VALID,79.0243,VALID,245.503,VALID,22.0225,VALID,347,VALID,1.10664,
2014-07-27, 08:46:04,VALID,919.854,VALID,0,VALID,79.5046,VALID,234.437,VALID,21.9801,VALID,351,VALID,0.851172,
2014-07-27, 08:47:04,VALID,919.847,VALID,0,VALID,79.2149,VALID,232.288,VALID,22.0208,VALID,15,VALID,1.08867,
2014-07-27, 08:48:04,VALID,919.845,VALID,0,VALID,79.1539,VALID,246.363,VALID,22.0598,VALID,15,VALID,0.731641,
2014-07-27, 08:49:04,VALID,919.838,VALID,0,VALID,80.023,VALID,253.669,VALID,22.1184,VALID,356,VALID,0.603906,
2014-07-27, 08:50:04,VALID,919.856,VALID,0,VALID,78.0638,VALID,255.388,VALID,22.2176,VALID,17,VALID,1.08047,
2014-07-27, 08:51:04,VALID,919.867,VALID,0,VALID,79.1616,VALID,258.503,VALID,22.2762,VALID,1,VALID,1.15586,
2014-07-27, 08:52:04,VALID,919.834,VALID,0,VALID,79.2454,VALID,253.454,VALID,22.2567,VALID,344,VALID,0.809375,
2014-07-27, 08:53:04,VALID,919.836,VALID,0,VALID,78.3916,VALID,250.875,VALID,22.2371,VALID,344,VALID,0.540625,
2014-07-27, 08:54:04,VALID,919.871,VALID,0,VALID,79.2988,VALID,243.891,VALID,22.2567,VALID,8,VALID,1.06211,
2014-07-27, 08:55:04,VALID,919.84,VALID,0,VALID,78.5669,VALID,242.495,VALID,22.3169,VALID,26,VALID,1.59531,
2014-07-27, 08:56:04,VALID,919.81,VALID,0,VALID,78.0714,VALID,241.635,VALID,22.3542,VALID,352,VALID,1.03516,
2014-07-27, 08:57:04,VALID,919.844,VALID,0,VALID,78.4526,VALID,236.585,VALID,22.4128,VALID,353,VALID,0.980078,
2014-07-27, 08:58:04,VALID,919.867,VALID,0,VALID,79.032,VALID,231.321,VALID,22.3754,VALID,340,VALID,0.711719,
2014-07-27, 08:59:04,VALID,919.868,VALID,0,VALID,79.4207,VALID,229.924,VALID,22.2354,VALID,340,VALID,0.413281,
2014-07-27, 09:00:04,VALID,919.854,VALID,0,VALID,79.7409,VALID,229.494,VALID,22.2371,VALID,340,VALID,0.485938,
2014-07-27, 09:01:04,VALID,919.836,VALID,0,VALID,78.5974,VALID,231.321,VALID,22.2371,VALID,340,VALID,1.04023,
2014-07-27, 09:02:04,VALID,919.842,VALID,0,VALID,79.5885,VALID,231.321,VALID,22.2354,VALID,346,VALID,0.859375,
2014-07-27, 09:03:04,VALID,919.847,VALID,0,VALID,78.9481,VALID,231.321,VALID,22.2354,VALID,339,VALID,1.34805,
2014-07-27, 09:04:04,VALID,919.863,VALID,0,VALID,78.0866,VALID,233.362,VALID,22.2371,VALID,3,VALID,1.47383,
2014-07-27, 09:05:04,VALID,919.873,VALID,0,VALID,79.0548,VALID,237.23,VALID,22.2354,VALID,5,VALID,1.27656,
2014-07-27, 09:06:04,VALID,919.893,VALID,0,VALID,78.7575,VALID,247.867,VALID,22.3152,VALID,10,VALID,1.42266,
2014-07-27, 09:07:04,VALID,919.904,VALID,0,VALID,79.8248,VALID,252.164,VALID,22.372,VALID,13,VALID,0.750781,
2014-07-27, 09:08:04,VALID,919.96,VALID,0,VALID,79.8477,VALID,258.289,VALID,22.4501,VALID,339,VALID,0.928516,
2014-07-27, 09:09:04,VALID,919.939,VALID,0,VALID,79.5808,VALID,270.322,VALID,22.4306,VALID,350,VALID,1.11953,
2014-07-27, 09:10:04,VALID,919.941,VALID,0,VALID,79.2988,VALID,289.339,VALID,22.4908,VALID,351,VALID,0.676953,
2014-07-27, 09:11:04,VALID,919.939,VALID,0,VALID,79.5351,VALID,287.19,VALID,22.4891,VALID,348,VALID,0.442969,
2014-07-27, 09:12:04,VALID,919.94,VALID,0,VALID,80.3965,VALID,284.289,VALID,22.5867,VALID,348,VALID,0.717578,
2014-07-27, 09:13:04,VALID,919.923,VALID,0,VALID,79.032,VALID,288.265,VALID,22.6257,VALID,348,VALID,1.12266,
2014-07-27, 09:14:04,VALID,919.926,VALID,0,VALID,77.9037,VALID,289.017,VALID,22.686,VALID,359,VALID,0.701172,
2014-07-27, 09:15:04,VALID,919.941,VALID,0,VALID,77.8808,VALID,288.479,VALID,22.7233,VALID,359,VALID,0.522266,
2014-07-27, 09:16:04,VALID,919.914,VALID,0,VALID,77.4158,VALID,295.141,VALID,22.8209,VALID,358,VALID,0.726172,
2014-07-27, 09:17:04,VALID,919.852,VALID,0,VALID,77.7588,VALID,303.521,VALID,22.9575,VALID,358,VALID,0.655078,
2014-07-27, 09:18:04,VALID,919.862,VALID,0,VALID,75.2507,VALID,309.431,VALID,22.9965,VALID,1,VALID,1.02852,
2014-07-27, 09:19:04,VALID,919.874,VALID,0,VALID,76.0512,VALID,317.059,VALID,23.0551,VALID,351,VALID,0.514453,
2014-07-27, 09:20:04,VALID,919.864,VALID,0,VALID,75.4108,VALID,322.753,VALID,23.1136,VALID,2,VALID,0.549219,
2014-07-27, 09:21:04,VALID,919.852,VALID,0,VALID,75.6777,VALID,320.712,VALID,23.2112,VALID,2,VALID,0.131641,
2014-07-27, 09:22:04,VALID,919.885,VALID,0,VALID,74.374,VALID,329.092,VALID,23.3478,VALID,3,VALID,0.135547,
2014-07-27, 09:23:04,VALID,919.877,VALID,0,VALID,73.8175,VALID,321.034,VALID,23.3869,VALID,7,VALID,1.03047,
2014-07-27, 09:24:04,VALID,919.868,VALID,0,VALID,74.2749,VALID,318.778,VALID,23.3674,VALID,10,VALID,1.22383,
2014-07-27, 09:25:04,VALID,919.862,VALID,0,VALID,74.2521,VALID,322.001,VALID,23.5058,VALID,5,VALID,0.710938,
2014-07-27, 09:26:04,VALID,919.886,VALID,0,VALID,74.374,VALID,331.778,VALID,23.5626,VALID,13,VALID,1.43359,
2014-07-27, 09:27:04,VALID,919.903,VALID,0,VALID,73.8785,VALID,336.828,VALID,23.6406,VALID,17,VALID,0.83125,
2014-07-27, 09:28:04,VALID,919.929,VALID,0,VALID,73.0552,VALID,347.894,VALID,23.7187,VALID,2,VALID,0.484766,
2014-07-27, 09:29:04,VALID,919.953,VALID,0,VALID,73.0323,VALID,347.465,VALID,23.6602,VALID,312,VALID,0.689453,
2014-07-27, 09:30:04,VALID,919.907,VALID,0,VALID,72.0184,VALID,344.779,VALID,23.6193,VALID,2,VALID,1.07734,
2014-07-27, 09:31:04,VALID,919.922,VALID,0,VALID,73.1543,VALID,339.836,VALID,23.6211,VALID,24,VALID,2.28203,
2014-07-27, 09:32:04,VALID,919.948,VALID,0,VALID,74.2521,VALID,342.522,VALID,23.6406,VALID,38,VALID,1.16367,
2014-07-27, 09:33:04,VALID,919.988,VALID,0,VALID,72.3615,VALID,344.456,VALID,23.7382,VALID,34,VALID,0.257813,
2014-07-27, 09:34:04,VALID,919.978,VALID,0,VALID,72.2547,VALID,340.051,VALID,23.756,VALID,326,VALID,0.536719,
2014-07-27, 09:35:04,VALID,919.966,VALID,0,VALID,72.0489,VALID,345.101,VALID,23.6797,VALID,326,VALID,0.535937,
2014-07-27, 09:36:04,VALID,919.956,VALID,0,VALID,73.1695,VALID,353.804,VALID,23.6388,VALID,326,VALID,0.151172,
2014-07-27, 09:37:04,VALID,919.946,VALID,0,VALID,73.6727,VALID,370.135,VALID,23.756,VALID,326,VALID,0.213281,
2014-07-27, 09:38:04,VALID,919.977,VALID,0,VALID,73.7718,VALID,371.209,VALID,23.8749,VALID,346,VALID,0.354688,
2014-07-27, 09:39:04,VALID,919.978,VALID,0,VALID,73.0323,VALID,367.449,VALID,23.9512,VALID,346,VALID,0.551562,
2014-07-27, 09:40:04,VALID,919.953,VALID,0,VALID,73.0018,VALID,373.465,VALID,24.1269,VALID,346,VALID,0.748828,
2014-07-27, 09:41:04,VALID,919.971,VALID,0,VALID,69.9677,VALID,378.515,VALID,24.283,VALID,346,VALID,0.454688,
2014-07-27, 09:42:04,VALID,919.975,VALID,0,VALID,71.0731,VALID,379.375,VALID,24.3416,VALID,333,VALID,1.01484,
2014-07-27, 09:43:04,VALID,919.954,VALID,0,VALID,71.8659,VALID,387.218,VALID,24.3221,VALID,358,VALID,0.883594,
2014-07-27, 09:44:04,VALID,919.948,VALID,0,VALID,71.2484,VALID,401.615,VALID,24.2068,VALID,314,VALID,0.471094,
2014-07-27, 09:45:04,VALID,919.961,VALID,0,VALID,70.7224,VALID,408.921,VALID,24.2458,VALID,347,VALID,1.14141,
2014-07-27, 09:46:04,VALID,919.99,VALID,0,VALID,69.9677,VALID,444.484,VALID,24.2458,VALID,19,VALID,0.883594,
2014-07-27, 09:47:04,VALID,919.976,VALID,0,VALID,70.6157,VALID,445.344,VALID,24.2635,VALID,355,VALID,0.41875,
2014-07-27, 09:48:04,VALID,919.951,VALID,0,VALID,70.4709,VALID,441.583,VALID,24.3044,VALID,333,VALID,0.993359,
2014-07-27, 09:49:04,VALID,919.978,VALID,0,VALID,69.5484,VALID,442.98,VALID,24.2458,VALID,9,VALID,1.43555,
2014-07-27, 09:50:04,VALID,919.978,VALID,0,VALID,70.5471,VALID,457.055,VALID,24.1873,VALID,355,VALID,0.894531,
2014-07-27, 09:51:04,VALID,919.937,VALID,0,VALID,70.57,VALID,471.344,VALID,24.1873,VALID,52,VALID,0.816016,
2014-07-27, 09:52:04,VALID,919.958,VALID,0,VALID,69.7771,VALID,481.014,VALID,24.2263,VALID,28,VALID,0.679688,
2014-07-27, 09:53:04,VALID,919.974,VALID,0,VALID,71.2713,VALID,505.725,VALID,24.2654,VALID,49,VALID,0.873047,
2014-07-27, 09:54:04,VALID,919.986,VALID,0,VALID,70.4022,VALID,548.057,VALID,24.3825,VALID,27,VALID,0.546094,
2014-07-27, 09:55:04,VALID,920.001,VALID,0,VALID,70.9283,VALID,575.347,VALID,24.5759,VALID,27,VALID,0.484375,
2014-07-27, 09:56:04,VALID,919.99,VALID,0,VALID,69.678,VALID,577.174,VALID,24.8121,VALID,27,VALID,0.525781,
2014-07-27, 09:57:04,VALID,919.985,VALID,0,VALID,68.4735,VALID,552.14,VALID,25.025,VALID,27,VALID,0.332031,
2014-07-27, 09:58:04,VALID,919.941,VALID,0,VALID,66.6591,VALID,536.669,VALID,25.1617,VALID,36,VALID,0.958984,
2014-07-27, 09:59:04,VALID,919.914,VALID,0,VALID,67.3224,VALID,525.71,VALID,25.2203,VALID,46,VALID,1.42148,
2014-07-27, 10:00:04,VALID,919.955,VALID,0,VALID,65.9578,VALID,553.322,VALID,25.3374,VALID,15,VALID,0.603516,
2014-07-27, 10:01:04,VALID,919.948,VALID,0,VALID,65.3251,VALID,567.289,VALID,25.3374,VALID,302,VALID,0.824609,
2014-07-27, 10:02:04,VALID,919.946,VALID,0,VALID,66.1408,VALID,552.677,VALID,25.1812,VALID,259,VALID,0.537109,
2014-07-27, 10:03:04,VALID,919.951,VALID,0,VALID,66.2551,VALID,563.959,VALID,25.1812,VALID,320,VALID,1.20742,
2014-07-27, 10:04:04,VALID,919.882,VALID,0,VALID,66.682,VALID,602.423,VALID,25.1226,VALID,43,VALID,1.85781,
2014-07-27, 10:05:04,VALID,919.899,VALID,0,VALID,66.8192,VALID,600.918,VALID,25.1617,VALID,37,VALID,0.579297,
2014-07-27, 10:06:04,VALID,919.884,VALID,0,VALID,65.9578,VALID,590.711,VALID,25.2398,VALID,30,VALID,0.724609,
2014-07-27, 10:07:04,VALID,919.864,VALID,0,VALID,65.6986,VALID,573.843,VALID,25.1812,VALID,344,VALID,0.960156,
2014-07-27, 10:08:04,VALID,919.882,VALID,0,VALID,66.3695,VALID,542.685,VALID,25.1402,VALID,351,VALID,1.55117,
2014-07-27, 10:09:04,VALID,919.866,VALID,0,VALID,67.2385,VALID,493.155,VALID,24.7693,VALID,305,VALID,1.32969,
2014-07-27, 10:10:04,VALID,919.874,VALID,0,VALID,69.3655,VALID,469.518,VALID,24.4783,VALID,287,VALID,0.559375,
2014-07-27, 10:11:04,VALID,919.877,VALID,0,VALID,70.8139,VALID,465.865,VALID,24.5155,VALID,298,VALID,0.269531,
2014-07-27, 10:12:04,VALID,919.91,VALID,0,VALID,68.8547,VALID,462.427,VALID,24.7516,VALID,354,VALID,0.414844,
2014-07-27, 10:13:04,VALID,919.92,VALID,0,VALID,67.5206,VALID,469.733,VALID,24.8102,VALID,276,VALID,0.59375,
2014-07-27, 10:14:04,VALID,919.933,VALID,0,VALID,67.4672,VALID,446.096,VALID,24.9255,VALID,275,VALID,0.0328125,
2014-07-27, 10:15:04,VALID,919.954,VALID,0,VALID,65.752,VALID,457.377,VALID,25.0231,VALID,256,VALID,1.00039,
2014-07-27, 10:16:04,VALID,919.909,VALID,0,VALID,66.3008,VALID,479.08,VALID,25.0445,VALID,351,VALID,0.335547,
2014-07-27, 10:17:04,VALID,919.936,VALID,0,VALID,65.9121,VALID,508.519,VALID,25.1012,VALID,46,VALID,1.27305,
2014-07-27, 10:18:04,VALID,919.921,VALID,0,VALID,66.4914,VALID,524.42,VALID,25.1402,VALID,345,VALID,0.918359,
2014-07-27, 10:19:04,VALID,919.9,VALID,0,VALID,66.2399,VALID,494.981,VALID,25.2379,VALID,28,VALID,0.98125,
2014-07-27, 10:20:04,VALID,919.934,VALID,0,VALID,66.8269,VALID,491.866,VALID,25.2984,VALID,2,VALID,1.10977,
2014-07-27, 10:21:04,VALID,919.943,VALID,0,VALID,66.1026,VALID,490.147,VALID,25.1226,VALID,301,VALID,0.855469,
2014-07-27, 10:22:04,VALID,919.967,VALID,0,VALID,66.0798,VALID,505.94,VALID,25.064,VALID,17,VALID,0.675,
2014-07-27, 10:23:04,VALID,919.973,VALID,0,VALID,66.3085,VALID,533.016,VALID,25.2007,VALID,3,VALID,1.14531,
2014-07-27, 10:24:04,VALID,920.021,VALID,0,VALID,66.7811,VALID,518.941,VALID,25.3179,VALID,357,VALID,0.613281,
2014-07-27, 10:25:04,VALID,920.012,VALID,0,VALID,65.7215,VALID,507.874,VALID,25.396,VALID,326,VALID,0.783984,
2014-07-27, 10:26:04,VALID,920.034,VALID,0,VALID,64.4331,VALID,515.503,VALID,25.4351,VALID,340,VALID,0.675,
2014-07-27, 10:27:04,VALID,920.015,VALID,0,VALID,65.569,VALID,523.238,VALID,25.396,VALID,321,VALID,0.876953,
2014-07-27, 10:28:04,VALID,920.03,VALID,0,VALID,66.6058,VALID,550.206,VALID,25.2984,VALID,298,VALID,0.692187,
2014-07-27, 10:29:04,VALID,920.055,VALID,0,VALID,64.9134,VALID,559.554,VALID,25.3765,VALID,307,VALID,0.629297,
2014-07-27, 10:30:04,VALID,920.029,VALID,0,VALID,65.9426,VALID,532.693,VALID,25.396,VALID,348,VALID,1.23477,
2014-07-27, 10:31:04,VALID,920.058,VALID,0,VALID,64.921,VALID,544.619,VALID,25.357,VALID,352,VALID,0.927344,
2014-07-27, 10:32:04,VALID,920.071,VALID,0,VALID,64.6542,VALID,531.619,VALID,25.2593,VALID,310,VALID,1.06406,
2014-07-27, 10:33:04,VALID,920.063,VALID,0,VALID,65.5842,VALID,502.825,VALID,25.1226,VALID,290,VALID,0.915625,
2014-07-27, 10:34:04,VALID,920.049,VALID,0,VALID,66.7659,VALID,491.543,VALID,25.064,VALID,5,VALID,0.41875,
2014-07-27, 10:35:04,VALID,920.014,VALID,0,VALID,65.6529,VALID,511.42,VALID,24.9859,VALID,324,VALID,1.28945,
2014-07-27, 10:36:04,VALID,920.01,VALID,0,VALID,66.2627,VALID,509.164,VALID,24.7516,VALID,299,VALID,0.507422,
2014-07-27, 10:37:04,VALID,919.987,VALID,0,VALID,67.6654,VALID,545.371,VALID,24.7907,VALID,352,VALID,0.967578,
2014-07-27, 10:38:04,VALID,919.981,VALID,0,VALID,68.9767,VALID,502.932,VALID,24.9469,VALID,3,VALID,1.75703,
2014-07-27, 10:39:04,VALID,919.991,VALID,0,VALID,67.147,VALID,539.569,VALID,25.0426,VALID,355,VALID,0.491797,